Home > Weather > Santa Fe > Past weeks

Flag for U.S.A. Weather for the Past 2 Weeks in Santa Fe, New Mexico, U.S.A.

Now
56 °F

Clear.


Feels Like: 55 °F
Forecast: 33 / 60 °F
Wind: 5 mph from Southwest

Location: Santa Fe County Municipal Airport

Current Time: Feb 12, 2016 at 6:39:00 PM

Latest Report: Feb 12, 2016 at 5:53 PM


Visibility: 10 mi

Pressure: 30.22 "Hg (23.43 "Hg at 2132m altitude)

Humidity: 18%

Dew point: 13 °F

Location of Santa FeLocation

Historic Weather in Santa Fe — Graph

°F

Santa Fe Temperature Yesterday

Maximum temperature yesterday: 61 °F (at 3:53 PM)
Minimum temperature yesterday: 27 °F (at 6:53 AM)
Average temperature yesterday: 44 °F

High & Low Weather Summary for the Past Weeks

 TemperatureHumidityPressure
High65 °F (Feb 12, 2:53 PM)96% (Feb 1, 8:00 AM)30.52 "Hg (Feb 1, 8:00 AM)
Low8 °F (Feb 3, 6:53 AM)14% (Feb 12, 2:53 PM)29.39 "Hg (Feb 1, 6:53 AM)
Average34 °F52%30.12 "Hg
* Reported Jan 28 4:53 PM — Feb 12 4:53 PM, Santa Fe, Weather by CustomWeather, © 2016

Note: Actual official high and low records may vary slightly from our data, if they occured in-between our weather recording intervals... More about our weather records

Advertising

Santa Fe Weather History for the Previous 24 Hours

 ConditionsComfort  
Time TempWeatherWind HumidityBarometerVisibility
4:53 PM
Fri, Feb 12
62 °FSunny.8 mph16%30.18 "Hg10 mi
3:53 PM64 °FSunny.12 mph17%30.17 "Hg10 mi
2:53 PM65 °FSunny.6 mph14%30.16 "Hg10 mi
1:53 PM64 °FSunny.10 mph15%30.16 "Hg10 mi
12:53 PM60 °FSunny.6 mph18%30.20 "Hg10 mi
11:53 AM57 °FSunny.8 mph21%30.25 "Hg10 mi
10:53 AM51 °FSunny.13 mph27%30.32 "Hg10 mi
9:53 AM45 °FSunny.13 mph35%30.35 "Hg10 mi
8:53 AM40 °FSunny.12 mph43%30.34 "Hg10 mi
7:53 AM34 °FSunny.13 mph56%30.34 "Hg10 mi
6:53 AM29 °FClear.12 mph66%30.35 "Hg10 mi
5:53 AM31 °FClear.9 mph61%30.28 "Hg10 mi
4:53 AM31 °FClear.17 mph61%30.25 "Hg10 mi
3:53 AM32 °FClear.13 mph56%30.24 "Hg10 mi
2:53 AM35 °FClear.15 mph52%30.22 "Hg10 mi
1:53 AM37 °FClear.9 mph48%30.21 "Hg10 mi
12:53 AM39 °FClear.12 mph45%30.19 "Hg10 mi
11:53 PM
Thu, Feb 11
40 °FClear.15 mph41%30.21 "Hg10 mi
10:53 PM37 °FClear.12 mph48%30.24 "Hg10 mi
9:53 PM37 °FClear.12 mph48%30.25 "Hg10 mi
8:53 PM42 °FClear.3 mph36%30.24 "Hg10 mi
7:53 PM44 °FClear.3 mph35%30.26 "Hg10 mi
6:53 PM47 °FClear.3 mph29%30.26 "Hg10 mi
Weather by CustomWeather, © 2016

See weather overviewHow to use our weather pages